DAL849 KSLC-KLAX

Flight info

Callsign DAL849
Flight time 1h 31m
Altitude 40000
Route WINEN LAKRR HAKMN ANJLL4
Aircraft A333/H-SDE3GHIJ2J3J5M1RVWXY/LB2D1

Departure

Time 2026-04-21 21:31
Airport Salt Lake City International Airport (KSLC)

Arrival

Time 2026-04-21 23:02
Airport Los Angeles International Airport (KLAX)
Time Latitude Longitude Altitude Speed Heading
2026-04-21 21:03 40.78627 -111.98439 4235 ft 0 kts 164°
2026-04-21 21:18 40.78630 -111.98440 4235 ft 3 kts 164°
2026-04-21 21:19 40.78656 -111.98452 4234 ft 4 kts 153°
2026-04-21 21:19 40.78678 -111.98471 4234 ft 4 kts 137°
2026-04-21 21:19 40.78695 -111.98498 4233 ft 4 kts 115°
2026-04-21 21:19 40.78702 -111.98531 4233 ft 4 kts 90°
2026-04-21 21:20 40.78702 -111.98544 4231 ft 0 kts 84°
2026-04-21 21:22 40.78703 -111.98526 4231 ft 5 kts 84°
2026-04-21 21:22 40.78708 -111.98460 4235 ft 8 kts 84°
2026-04-21 21:22 40.78713 -111.98377 4235 ft 9 kts 85°
2026-04-21 21:23 40.78720 -111.98286 4235 ft 11 kts 85°
2026-04-21 21:23 40.78726 -111.98183 4235 ft 12 kts 85°
2026-04-21 21:23 40.78734 -111.98077 4235 ft 12 kts 85°
2026-04-21 21:23 40.78741 -111.97968 4235 ft 12 kts 85°
2026-04-21 21:24 40.78749 -111.97858 4235 ft 12 kts 85°
2026-04-21 21:24 40.78756 -111.97747 4235 ft 12 kts 85°
2026-04-21 21:24 40.78774 -111.97697 4235 ft 6 kts 39°
2026-04-21 21:24 40.78832 -111.97691 4235 ft 12 kts 356°
2026-04-21 21:25 40.78924 -111.97702 4235 ft 13 kts 355°
2026-04-21 21:25 40.79017 -111.97712 4235 ft 14 kts 355°
2026-04-21 21:25 40.79114 -111.97723 4235 ft 14 kts 355°
2026-04-21 21:25 40.79221 -111.97735 4235 ft 16 kts 355°
2026-04-21 21:26 40.79334 -111.97749 4234 ft 17 kts 355°
2026-04-21 21:26 40.79456 -111.97763 4234 ft 18 kts 355°
2026-04-21 21:26 40.79579 -111.97777 4234 ft 18 kts 355°
2026-04-21 21:26 40.79705 -111.97792 4234 ft 19 kts 355°
2026-04-21 21:27 40.79841 -111.97807 4234 ft 19 kts 355°
2026-04-21 21:27 40.79974 -111.97823 4235 ft 19 kts 355°
2026-04-21 21:27 40.80109 -111.97839 4235 ft 20 kts 355°
2026-04-21 21:27 40.80244 -111.97849 4235 ft 17 kts
2026-04-21 21:28 40.80356 -111.97819 4235 ft 16 kts
2026-04-21 21:28 40.80472 -111.97829 4235 ft 17 kts 355°
2026-04-21 21:28 40.80698 -111.97855 4234 ft 6 kts 355°
2026-04-21 21:29 40.80735 -111.97840 4234 ft 6 kts 44°
2026-04-21 21:29 40.80742 -111.97776 4233 ft 9 kts 105°
2026-04-21 21:29 40.80734 -111.97702 4233 ft 3 kts 112°
2026-04-21 21:29 40.80723 -111.97698 4231 ft 0 kts 171°
2026-04-21 21:30 40.80721 -111.97698 4233 ft 1 kts 172°
2026-04-21 21:30 40.80582 -111.97680 4235 ft 46 kts 174°
2026-04-21 21:30 40.80088 -111.97622 4237 ft 95 kts 175°
2026-04-21 21:30 40.79281 -111.97528 4234 ft 136 kts 175°
2026-04-21 21:31 40.78234 -111.97413 4403 ft 157 kts 173°
2026-04-21 21:31 40.77156 -111.97274 5002 ft 157 kts 174°
2026-04-21 21:31 40.76058 -111.97043 5652 ft 159 kts 173°
2026-04-21 21:31 40.74943 -111.96794 6149 ft 170 kts 171°
2026-04-21 21:32 40.73725 -111.96545 6513 ft 185 kts 174°
2026-04-21 21:32 40.72383 -111.96297 6757 ft 205 kts 175°
2026-04-21 21:32 40.70915 -111.96027 7007 ft 222 kts 174°
2026-04-21 21:32 40.69330 -111.95755 7200 ft 244 kts 174°
2026-04-21 21:33 40.67568 -111.95445 7517 ft 265 kts 174°
2026-04-21 21:33 40.65726 -111.95102 8380 ft 266 kts 174°
2026-04-21 21:33 40.63892 -111.94764 9312 ft 268 kts 174°
2026-04-21 21:33 40.62024 -111.94431 10128 ft 273 kts 174°
2026-04-21 21:34 40.60084 -111.94073 10604 ft 292 kts 171°
2026-04-21 21:34 40.58055 -111.93346 10960 ft 313 kts 162°
2026-04-21 21:34 40.55942 -111.92318 11267 ft 333 kts 161°
2026-04-21 21:34 40.53738 -111.91217 11761 ft 343 kts 161°
2026-04-21 21:35 40.51499 -111.90100 12484 ft 346 kts 161°
2026-04-21 21:35 40.49247 -111.88983 13275 ft 346 kts 161°
2026-04-21 21:35 40.46944 -111.88069 13948 ft 345 kts 169°
2026-04-21 21:35 40.44554 -111.87805 14528 ft 348 kts 182°
2026-04-21 21:36 40.42159 -111.88381 15128 ft 353 kts 195°
2026-04-21 21:36 40.39846 -111.89523 15809 ft 356 kts 201°
2026-04-21 21:36 40.37597 -111.90925 16472 ft 359 kts 205°
2026-04-21 21:36 40.35382 -111.92456 17139 ft 362 kts 206°
2026-04-21 21:37 40.33167 -111.94042 17737 ft 364 kts 206°
2026-04-21 21:37 40.30938 -111.95633 18383 ft 366 kts 206°
2026-04-21 21:37 40.28688 -111.97215 18862 ft 369 kts 206°
2026-04-21 21:37 40.26404 -111.98789 19365 ft 372 kts 206°
2026-04-21 21:38 40.24100 -112.00357 19810 ft 377 kts 205°
2026-04-21 21:38 40.21758 -112.01937 20282 ft 380 kts 206°
2026-04-21 21:38 40.19402 -112.03520 20776 ft 382 kts 206°
2026-04-21 21:38 40.17058 -112.05092 21257 ft 385 kts 206°
2026-04-21 21:39 40.14670 -112.06692 21731 ft 388 kts 206°
2026-04-21 21:39 40.12263 -112.08304 22194 ft 390 kts 206°
2026-04-21 21:39 40.09840 -112.09927 22664 ft 393 kts 206°
2026-04-21 21:39 40.07399 -112.11562 23107 ft 395 kts 206°
2026-04-21 21:40 40.04946 -112.13203 23556 ft 397 kts 206°
2026-04-21 21:40 40.02485 -112.14861 23934 ft 398 kts 206°
2026-04-21 21:40 40.00015 -112.16516 24261 ft 402 kts 206°
2026-04-21 21:40 39.97516 -112.18179 24667 ft 404 kts 206°
2026-04-21 21:41 39.95009 -112.19845 25079 ft 405 kts 206°
2026-04-21 21:41 39.92491 -112.21519 25425 ft 408 kts 206°
2026-04-21 21:41 39.89952 -112.23207 25779 ft 411 kts 206°
2026-04-21 21:41 39.87400 -112.24903 26120 ft 413 kts 206°
2026-04-21 21:42 39.84831 -112.26610 26462 ft 416 kts 206°
2026-04-21 21:42 39.82248 -112.28325 26808 ft 418 kts 206°
2026-04-21 21:42 39.79651 -112.30049 27139 ft 421 kts 206°
2026-04-21 21:42 39.77033 -112.31785 27471 ft 423 kts 206°
2026-04-21 21:43 39.74403 -112.33526 27814 ft 425 kts 206°
2026-04-21 21:43 39.71762 -112.35274 28143 ft 427 kts 206°
2026-04-21 21:43 39.69104 -112.37031 28451 ft 430 kts 206°
2026-04-21 21:43 39.66430 -112.38798 28770 ft 432 kts 206°
2026-04-21 21:44 39.63741 -112.40572 29061 ft 435 kts 206°
2026-04-21 21:44 39.61042 -112.42352 29360 ft 437 kts 206°
2026-04-21 21:44 39.58323 -112.44144 29670 ft 439 kts 206°
2026-04-21 21:44 39.55593 -112.45941 29955 ft 441 kts 206°
2026-04-21 21:45 39.53782 -112.47133 30188 ft 440 kts 206°
2026-04-21 21:45 39.51063 -112.48921 30686 ft 436 kts 206°
2026-04-21 21:45 39.48368 -112.50690 31251 ft 434 kts 206°
2026-04-21 21:45 39.45676 -112.52457 31631 ft 433 kts 206°
2026-04-21 21:46 39.42997 -112.54213 31992 ft 432 kts 206°
2026-04-21 21:46 39.40315 -112.55970 32359 ft 430 kts 206°
2026-04-21 21:46 39.37650 -112.57714 32735 ft 429 kts 206°
2026-04-21 21:46 39.34991 -112.59453 32959 ft 428 kts 206°
2026-04-21 21:47 39.32338 -112.61186 33329 ft 426 kts 206°
2026-04-21 21:47 39.29694 -112.62912 33664 ft 425 kts 206°
2026-04-21 21:47 39.27058 -112.64631 33999 ft 424 kts 207°
2026-04-21 21:47 39.24423 -112.66348 34273 ft 424 kts 207°
2026-04-21 21:48 39.21792 -112.68062 34531 ft 424 kts 207°
2026-04-21 21:48 39.19161 -112.69773 34796 ft 423 kts 207°
2026-04-21 21:48 39.16536 -112.71480 35060 ft 423 kts 207°
2026-04-21 21:48 39.13911 -112.73184 35325 ft 422 kts 207°
2026-04-21 21:49 39.11288 -112.74887 35584 ft 422 kts 207°
2026-04-21 21:49 39.08667 -112.76586 35833 ft 422 kts 207°
2026-04-21 21:49 39.06051 -112.78281 36102 ft 421 kts 207°
2026-04-21 21:49 39.03430 -112.79977 36312 ft 422 kts 207°
2026-04-21 21:50 39.00811 -112.81671 36513 ft 422 kts 207°
2026-04-21 21:50 38.98220 -112.83345 36770 ft 421 kts 207°
2026-04-21 21:50 38.95604 -112.85035 37018 ft 421 kts 207°
2026-04-21 21:50 38.92988 -112.86723 37255 ft 420 kts 207°
2026-04-21 21:51 38.90375 -112.88408 37494 ft 420 kts 207°
2026-04-21 21:51 38.87764 -112.90089 37723 ft 420 kts 207°
2026-04-21 21:51 38.85154 -112.91769 37964 ft 419 kts 207°
2026-04-21 21:51 38.82549 -112.93445 38201 ft 419 kts 207°
2026-04-21 21:52 38.79946 -112.95117 38396 ft 418 kts 207°
2026-04-21 21:52 38.77346 -112.96786 38564 ft 419 kts 207°
2026-04-21 21:52 38.74738 -112.98459 38736 ft 419 kts 207°
2026-04-21 21:52 38.72135 -113.00127 38910 ft 419 kts 207°
2026-04-21 21:53 38.69531 -113.01795 39057 ft 419 kts 207°
2026-04-21 21:53 38.66925 -113.03462 39285 ft 419 kts 207°
2026-04-21 21:53 38.64318 -113.05129 39442 ft 419 kts 207°
2026-04-21 21:53 38.61708 -113.06796 39600 ft 419 kts 207°
2026-04-21 21:54 38.59099 -113.08462 39766 ft 419 kts 207°
2026-04-21 21:54 38.56491 -113.10125 39900 ft 420 kts 207°
2026-04-21 21:54 38.53871 -113.11794 39952 ft 421 kts 208°
2026-04-21 21:55 38.48637 -113.15124 39960 ft 420 kts 208°
2026-04-21 21:55 38.43411 -113.18446 39953 ft 419 kts 208°
2026-04-21 21:56 38.38185 -113.21762 39934 ft 420 kts 208°
2026-04-21 21:56 38.32958 -113.25072 39909 ft 420 kts 208°
2026-04-21 21:57 38.27732 -113.28377 39875 ft 419 kts 208°
2026-04-21 21:57 38.22503 -113.31679 39836 ft 419 kts 208°
2026-04-21 21:58 38.17277 -113.34972 39812 ft 419 kts 208°
2026-04-21 21:58 38.12048 -113.38262 39813 ft 419 kts 208°
2026-04-21 21:59 38.06821 -113.41546 39814 ft 419 kts 208°
2026-04-21 21:59 38.01628 -113.44805 39814 ft 418 kts 208°
2026-04-21 22:00 37.96434 -113.48058 39813 ft 416 kts 208°
2026-04-21 22:00 37.91110 -113.50935 39823 ft 417 kts 202°
2026-04-21 22:01 37.85603 -113.53409 39828 ft 417 kts 201°
2026-04-21 22:01 37.80145 -113.55768 39822 ft 418 kts 202°
2026-04-21 22:02 37.74650 -113.58136 39830 ft 417 kts 202°
2026-04-21 22:02 37.69159 -113.60510 39832 ft 417 kts 202°
2026-04-21 22:03 37.63675 -113.62885 39841 ft 417 kts 202°
2026-04-21 22:03 37.58189 -113.65258 39839 ft 417 kts 202°
2026-04-21 22:04 37.52686 -113.67635 39840 ft 420 kts 202°
2026-04-21 22:04 37.47148 -113.70023 39838 ft 421 kts 202°
2026-04-21 22:05 37.41603 -113.72411 39842 ft 421 kts 202°
2026-04-21 22:05 37.36059 -113.74793 39839 ft 421 kts 202°
2026-04-21 22:06 37.30533 -113.77156 39826 ft 416 kts 202°
2026-04-21 22:06 37.25089 -113.79486 39838 ft 412 kts 202°
2026-04-21 22:07 37.19671 -113.81804 39844 ft 412 kts 202°
2026-04-21 22:07 37.14249 -113.84117 39831 ft 411 kts 202°
2026-04-21 22:08 37.08843 -113.86433 39821 ft 412 kts 203°
2026-04-21 22:08 37.03412 -113.88747 39830 ft 412 kts 203°
2026-04-21 22:09 36.97982 -113.91055 39818 ft 412 kts 203°
2026-04-21 22:09 36.92548 -113.93361 39810 ft 412 kts 203°
2026-04-21 22:10 36.87150 -113.95649 39809 ft 412 kts 203°
2026-04-21 22:10 36.81714 -113.97951 39805 ft 413 kts 203°
2026-04-21 22:11 36.76257 -114.00259 39809 ft 415 kts 203°
2026-04-21 22:11 36.70785 -114.02567 39796 ft 415 kts 203°
2026-04-21 22:12 36.65312 -114.04872 39794 ft 415 kts 203°
2026-04-21 22:12 36.59838 -114.07174 39818 ft 415 kts 203°
2026-04-21 22:13 36.54385 -114.09472 39798 ft 414 kts 203°
2026-04-21 22:13 36.48915 -114.11763 39796 ft 415 kts 203°
2026-04-21 22:14 36.43436 -114.14055 39782 ft 415 kts 203°
2026-04-21 22:14 36.37959 -114.16345 39782 ft 415 kts 203°
2026-04-21 22:15 36.32479 -114.18631 39775 ft 416 kts 203°
2026-04-21 22:15 36.26981 -114.20923 39783 ft 417 kts 203°
2026-04-21 22:16 36.21477 -114.23215 39781 ft 417 kts 203°
2026-04-21 22:16 36.15976 -114.25502 39783 ft 417 kts 203°
2026-04-21 22:17 36.10602 -114.28139 39776 ft 413 kts 212°
2026-04-21 22:17 36.05994 -114.32263 39781 ft 409 kts 226°
2026-04-21 22:18 36.02159 -114.37410 39783 ft 410 kts 229°
2026-04-21 22:18 35.98376 -114.42678 39770 ft 409 kts 229°
2026-04-21 22:19 35.94595 -114.47923 39786 ft 409 kts 229°
2026-04-21 22:19 35.90812 -114.53153 39802 ft 408 kts 229°
2026-04-21 22:20 35.87027 -114.58376 39809 ft 408 kts 229°
2026-04-21 22:20 35.83239 -114.63594 39776 ft 408 kts 229°
2026-04-21 22:21 35.79447 -114.68806 39832 ft 408 kts 229°
2026-04-21 22:21 35.75652 -114.74016 39834 ft 409 kts 229°
2026-04-21 22:22 35.71855 -114.79224 39866 ft 409 kts 229°
2026-04-21 22:22 35.68056 -114.84423 39868 ft 408 kts 229°
2026-04-21 22:23 35.64261 -114.89611 39876 ft 408 kts 229°
2026-04-21 22:23 35.60459 -114.94801 39873 ft 408 kts 229°
2026-04-21 22:24 35.56653 -114.99988 39868 ft 409 kts 229°
2026-04-21 22:24 35.52852 -115.05162 39883 ft 407 kts 229°
2026-04-21 22:25 35.49027 -115.10277 39882 ft 407 kts 228°
2026-04-21 22:25 35.45156 -115.15338 39868 ft 407 kts 228°
2026-04-21 22:26 35.41298 -115.20372 39896 ft 408 kts 228°
2026-04-21 22:26 35.37404 -115.25446 39895 ft 409 kts 228°
2026-04-21 22:27 35.33507 -115.30519 39905 ft 409 kts 228°
2026-04-21 22:27 35.29609 -115.35585 39902 ft 407 kts 228°
2026-04-21 22:28 35.25741 -115.40606 39910 ft 404 kts 228°
2026-04-21 22:28 35.21884 -115.45605 39909 ft 404 kts 228°
2026-04-21 22:29 35.18024 -115.50601 39901 ft 404 kts 228°
2026-04-21 22:29 35.14160 -115.55594 39776 ft 404 kts 228°
2026-04-21 22:29 35.12230 -115.58082 39518 ft 403 kts 229°
2026-04-21 22:30 35.10300 -115.60557 39279 ft 402 kts 228°
2026-04-21 22:30 35.08372 -115.63024 39055 ft 401 kts 228°
2026-04-21 22:30 35.06446 -115.65487 38830 ft 401 kts 228°
2026-04-21 22:30 35.04523 -115.67944 38604 ft 400 kts 228°
2026-04-21 22:31 35.03251 -115.69569 38422 ft 400 kts 228°
2026-04-21 22:31 35.01331 -115.72020 38154 ft 399 kts 228°
2026-04-21 22:31 34.99414 -115.74465 37888 ft 399 kts 228°
2026-04-21 22:31 34.97495 -115.76910 37604 ft 399 kts 228°
2026-04-21 22:32 34.95578 -115.79352 37333 ft 398 kts 228°
2026-04-21 22:32 34.93043 -115.82579 36977 ft 398 kts 228°
2026-04-21 22:32 34.91127 -115.85015 36715 ft 398 kts 228°
2026-04-21 22:32 34.89215 -115.87446 36452 ft 397 kts 228°
2026-04-21 22:33 34.87923 -115.89087 36277 ft 397 kts 228°
2026-04-21 22:33 34.86007 -115.91518 36019 ft 397 kts 228°
2026-04-21 22:33 34.84095 -115.93943 35777 ft 397 kts 228°
2026-04-21 22:33 34.82185 -115.96364 35556 ft 396 kts 228°
2026-04-21 22:34 34.80281 -115.98775 35288 ft 394 kts 228°
2026-04-21 22:34 34.78387 -116.01172 35043 ft 393 kts 228°
2026-04-21 22:34 34.76500 -116.03571 34801 ft 391 kts 228°
2026-04-21 22:34 34.74665 -116.05909 34447 ft 385 kts 228°
2026-04-21 22:35 34.72798 -116.08287 33943 ft 383 kts 228°
2026-04-21 22:35 34.70986 -116.10595 33330 ft 382 kts 228°
2026-04-21 22:35 34.69158 -116.12922 32762 ft 379 kts 228°
2026-04-21 22:35 34.67342 -116.15232 32207 ft 377 kts 227°
2026-04-21 22:36 34.63735 -116.19817 31029 ft 374 kts 227°
2026-04-21 22:36 34.61932 -116.22109 30436 ft 376 kts 227°
2026-04-21 22:36 34.60116 -116.24413 29764 ft 378 kts 227°
2026-04-21 22:37 34.58302 -116.26711 29252 ft 376 kts 227°
2026-04-21 22:37 34.56494 -116.28999 28889 ft 374 kts 227°
2026-04-21 22:37 34.54696 -116.31272 28467 ft 373 kts 227°
2026-04-21 22:37 34.52906 -116.33536 28080 ft 372 kts 227°
2026-04-21 22:38 34.51120 -116.35795 27664 ft 369 kts 227°
2026-04-21 22:38 34.49356 -116.38024 27273 ft 364 kts 226°
2026-04-21 22:38 34.47608 -116.40231 26851 ft 363 kts 227°
2026-04-21 22:38 34.45854 -116.42443 26481 ft 364 kts 227°
2026-04-21 22:39 34.44099 -116.44658 26078 ft 364 kts 227°
2026-04-21 22:39 34.42429 -116.46949 25681 ft 363 kts 232°
2026-04-21 22:39 34.41029 -116.49446 25509 ft 352 kts 238°
2026-04-21 22:39 34.39895 -116.52015 25418 ft 340 kts 241°
2026-04-21 22:40 34.38857 -116.54534 25271 ft 329 kts 242°
2026-04-21 22:40 34.37858 -116.56979 25131 ft 319 kts 242°
2026-04-21 22:40 34.36879 -116.59368 24987 ft 318 kts 242°
2026-04-21 22:40 34.35888 -116.61775 24742 ft 320 kts 242°
2026-04-21 22:41 34.34908 -116.64154 24430 ft 320 kts 242°
2026-04-21 22:41 34.33916 -116.66560 24114 ft 319 kts 242°
2026-04-21 22:41 34.32934 -116.68976 23801 ft 324 kts 242°
2026-04-21 22:41 34.31922 -116.71485 23418 ft 337 kts 242°
2026-04-21 22:42 34.30891 -116.74050 23010 ft 340 kts 243°
2026-04-21 22:42 34.29857 -116.76622 22684 ft 341 kts 242°
2026-04-21 22:42 34.28824 -116.79193 22322 ft 339 kts 242°
2026-04-21 22:42 34.27797 -116.81749 21938 ft 336 kts 242°
2026-04-21 22:43 34.26777 -116.84280 21587 ft 334 kts 242°
2026-04-21 22:43 34.25761 -116.86796 21225 ft 332 kts 242°
2026-04-21 22:43 34.24752 -116.89295 20893 ft 329 kts 242°
2026-04-21 22:43 34.23756 -116.91761 20535 ft 325 kts 242°
2026-04-21 22:44 34.22768 -116.94205 20205 ft 323 kts 242°
2026-04-21 22:44 34.21781 -116.96644 19855 ft 322 kts 242°
2026-04-21 22:44 34.20909 -116.99128 19514 ft 322 kts 247°
2026-04-21 22:44 34.20185 -117.01682 19190 ft 320 kts 249°
2026-04-21 22:45 34.19498 -117.04236 18850 ft 319 kts 249°
2026-04-21 22:45 34.18815 -117.06779 18511 ft 318 kts 249°
2026-04-21 22:45 34.18131 -117.09316 18137 ft 317 kts 248°
2026-04-21 22:45 34.17447 -117.11840 17713 ft 316 kts 249°
2026-04-21 22:46 34.16767 -117.14352 17332 ft 313 kts 249°
2026-04-21 22:46 34.16089 -117.16837 17007 ft 311 kts 249°
2026-04-21 22:46 34.15431 -117.19241 16780 ft 311 kts 249°
2026-04-21 22:46 34.14754 -117.21709 16439 ft 309 kts 249°
2026-04-21 22:47 34.14078 -117.24160 16101 ft 307 kts 249°
2026-04-21 22:47 34.13405 -117.26603 15775 ft 306 kts 249°
2026-04-21 22:47 34.12740 -117.29016 15455 ft 309 kts 249°
2026-04-21 22:47 34.12063 -117.31468 15116 ft 306 kts 249°
2026-04-21 22:48 34.11396 -117.33889 14789 ft 303 kts 249°
2026-04-21 22:48 34.10736 -117.36289 14465 ft 301 kts 250°
2026-04-21 22:48 34.10113 -117.38699 14140 ft 301 kts 251°
2026-04-21 22:48 34.09507 -117.41108 13811 ft 300 kts 251°
2026-04-21 22:49 34.08905 -117.43512 13442 ft 299 kts 251°
2026-04-21 22:49 34.08306 -117.45910 13132 ft 298 kts 250°
2026-04-21 22:49 34.07716 -117.48272 12960 ft 290 kts 251°
2026-04-21 22:49 34.07134 -117.50577 12634 ft 285 kts 251°
2026-04-21 22:50 34.06554 -117.52855 12225 ft 283 kts 251°
2026-04-21 22:50 34.05975 -117.55124 11903 ft 284 kts 250°
2026-04-21 22:50 34.05394 -117.57396 11604 ft 284 kts 250°
2026-04-21 22:50 34.04812 -117.59669 11294 ft 284 kts 250°
2026-04-21 22:51 34.04239 -117.61913 11084 ft 275 kts 250°
2026-04-21 22:51 34.03701 -117.64017 10846 ft 269 kts 250°
2026-04-21 22:51 34.03155 -117.66148 10552 ft 263 kts 249°
2026-04-21 22:51 34.02619 -117.68239 10272 ft 260 kts 249°
2026-04-21 22:52 34.02181 -117.70357 9971 ft 262 kts 256°
2026-04-21 22:52 34.01924 -117.72535 9584 ft 262 kts 259°
2026-04-21 22:52 34.01714 -117.74718 9301 ft 262 kts 259°
2026-04-21 22:52 34.01507 -117.76900 9064 ft 262 kts 259°
2026-04-21 22:53 34.01301 -117.79080 8760 ft 261 kts 260°
2026-04-21 22:53 34.01094 -117.81249 8427 ft 259 kts 260°
2026-04-21 22:53 34.00887 -117.83393 8122 ft 257 kts 260°
2026-04-21 22:53 34.00679 -117.85526 7881 ft 256 kts 260°
2026-04-21 22:54 34.00470 -117.87656 7550 ft 255 kts 261°
2026-04-21 22:54 34.00262 -117.89774 7263 ft 255 kts 261°
2026-04-21 22:54 34.00054 -117.91893 7002 ft 254 kts 261°
2026-04-21 22:54 33.99857 -117.94009 6873 ft 254 kts 262°
2026-04-21 22:55 33.99686 -117.96099 6758 ft 254 kts 262°
2026-04-21 22:55 33.99494 -117.98208 6639 ft 253 kts 262°
2026-04-21 22:55 33.99299 -118.00305 6517 ft 251 kts 262°
2026-04-21 22:55 33.99102 -118.02392 6340 ft 251 kts 262°
2026-04-21 22:56 33.98888 -118.04453 6056 ft 246 kts 261°
2026-04-21 22:56 33.98671 -118.06489 5707 ft 244 kts 261°
2026-04-21 22:56 33.98463 -118.08520 5327 ft 243 kts 261°
2026-04-21 22:56 33.98256 -118.10539 4957 ft 243 kts 261°
2026-04-21 22:57 33.98050 -118.12547 4610 ft 241 kts 260°
2026-04-21 22:57 33.97844 -118.14536 4280 ft 238 kts 260°
2026-04-21 22:57 33.97641 -118.16512 3972 ft 237 kts 260°
2026-04-21 22:57 33.97439 -118.18487 3673 ft 238 kts 261°
2026-04-21 22:58 33.97238 -118.20461 3343 ft 236 kts 260°
2026-04-21 22:58 33.97040 -118.22389 3032 ft 228 kts 261°
2026-04-21 22:58 33.96852 -118.24227 2736 ft 214 kts 260°
2026-04-21 22:58 33.96678 -118.25934 2465 ft 198 kts 259°
2026-04-21 22:59 33.96513 -118.27535 2195 ft 186 kts 260°
2026-04-21 22:59 33.96359 -118.29034 1959 ft 176 kts 261°
2026-04-21 22:59 33.96213 -118.30464 1748 ft 169 kts 258°
2026-04-21 22:59 33.96070 -118.31842 1500 ft 162 kts 258°
2026-04-21 23:00 33.95937 -118.33135 1284 ft 148 kts 263°
2026-04-21 23:00 33.95823 -118.34253 1102 ft 132 kts 261°
2026-04-21 23:00 33.95716 -118.35308 938 ft 125 kts 257°
2026-04-21 23:00 33.95606 -118.36343 756 ft 125 kts 263°
2026-04-21 23:01 33.95499 -118.37390 601 ft 128 kts 259°
2026-04-21 23:01 33.95391 -118.38466 411 ft 128 kts 255°
2026-04-21 23:01 33.95286 -118.39496 241 ft 122 kts 257°
2026-04-21 23:01 33.95182 -118.40503 108 ft 122 kts 257°
2026-04-21 23:02 33.95085 -118.41406 98 ft 83 kts 263°
2026-04-21 23:02 33.95039 -118.41869 102 ft 36 kts 263°
2026-04-21 23:02 33.94976 -118.42135 101 ft 21 kts 238°
2026-04-21 23:02 33.94903 -118.42238 100 ft 12 kts 223°
2026-04-21 23:03 33.94884 -118.42256 102 ft 3 kts 214°
2026-04-21 23:03 33.94838 -118.42280 102 ft 13 kts 195°
2026-04-21 23:03 33.94748 -118.42275 101 ft 14 kts 168°
2026-04-21 23:03 33.94690 -118.42246 101 ft 7 kts 119°
2026-04-21 23:04 33.94691 -118.42158 101 ft 13 kts 83°
2026-04-21 23:04 33.94703 -118.42035 99 ft 17 kts 83°
2026-04-21 23:04 33.94717 -118.41888 101 ft 19 kts 83°
2026-04-21 23:04 33.94733 -118.41726 98 ft 21 kts 83°
2026-04-21 23:05 33.94751 -118.41549 99 ft 22 kts 83°
2026-04-21 23:05 33.94770 -118.41416 100 ft 14 kts 72°
2026-04-21 23:05 33.94792 -118.41295 101 ft 16 kts 82°
2026-04-21 23:05 33.94805 -118.41165 101 ft 15 kts 84°
2026-04-21 23:06 33.94818 -118.41032 103 ft 17 kts 83°
2026-04-21 23:06 33.94826 -118.40918 101 ft 9 kts 101°
2026-04-21 23:06 33.94775 -118.40888 99 ft 9 kts 193°
2026-04-21 23:06 33.94734 -118.40876 99 ft 5 kts 138°
2026-04-21 23:07 33.94720 -118.40860 99 ft 2 kts 136°
2026-04-21 23:07 33.94715 -118.40854 99 ft 3 kts 136°
2026-04-21 23:07 33.94698 -118.40835 98 ft 2 kts 136°
2026-04-21 23:07 33.94690 -118.40826 98 ft 1 kts 137°
2026-04-21 23:08 33.94689 -118.40824 100 ft 0 kts 137°